Redmond, OR

12:50 AM PST on December 15, 2019 (GMT -0800)
Roberts Field Airport

Weather History for KRDM - November, 2019

Change the Weather History Date:

Thursday, November 14, 2019

  Actual Average Record
Temperature  
Mean Temperature 42 °F 38 °F  
Max Temperature 45 °F 49 °F 74 °F (1999)
Min Temperature 38 °F 26 °F -7 °F (1955)
Degree Days  
Heating Degree Days 23 27  
Month to date heating degree days 288 348  
Since 1 July heating degree days 1207 1293  
Cooling Degree Days 0 0  
Month to date cooling degree days 0 0  
Year to date cooling degree days 293 222  
Moisture  
Dew Point 37 °F    
Average Humidity 84    
Maximum Humidity 92    
Minimum Humidity 76    
Precipitation  
Precipitation 0.00 in 0.03 in 0.67 in (2014)
Month to date precipitation 0.00 0.43  
Year to date precipitation 9.27 7.21  
Sea Level Pressure  
Sea Level Pressure 30.11 in    
Wind  
Wind Speed 3 mph (NW)    
Max Wind Speed 9 mph    
Max Gust Speed 13 mph    
Visibility 6 miles    
Events      
T = Trace of Precipitation, MM = Missing Value Source: NWS Daily Summary

Daily Weather History Graph

Daily Weather History Graph

Search for Another Location

Airport or City:

Astronomy

Nov. 14, 2019 Rise Set
Actual Time 6:58 AM PST 4:38 PM PST
Civil Twilight 6:27 AM PST 5:09 PM PST
Nautical Twilight 5:52 AM PST 5:45 PM PST
Astronomical Twilight 5:18 AM PST 6:19 PM PST
Moon 6:25 PM PST (11/14) 9:02 AM PST (11/14)
Length of Visible Light 10h 42m
Length of Day
9h 40m
Waning Gibbous, 95% of the Moon is Illuminated
Nov 14
Waning Gibbous
Nov 19
Last Quarter
Nov 26
New
Dec 3
First Quarter
Dec 11
Full

Hourly Weather History & Observations

Time (PST) Temp. Windchill Dew Point Humidity Pressure Visibility Wind Dir Wind Speed Gust Speed Precip Events Conditions
12:56 AM 39.0 °F 35.7 °F 37.0 °F 93% 30.12 in 0.8 mi NNW 4.6 mph - N/A   Mist
1:45 AM 39.0 °F 36.8 °F 37.0 °F 93% 30.13 in 1.0 mi NW 3.5 mph - N/A   Mist
1:56 AM 39.0 °F 35.7 °F 37.0 °F 93% 30.13 in 1.0 mi NW 4.6 mph - N/A   Overcast
2:21 AM 39.0 °F 35.7 °F 37.0 °F 93% 30.13 in 0.8 mi West 4.6 mph - N/A   Mist
2:56 AM 37.9 °F 34.4 °F 36.0 °F 93% 30.13 in 0.8 mi NW 4.6 mph - N/A   Mist
3:05 AM 37.9 °F 34.4 °F 36.0 °F 93% 30.13 in 1.0 mi NW 4.6 mph - N/A   Mist
3:56 AM 37.9 °F 35.5 °F 36.0 °F 93% 30.12 in 1.2 mi North 3.5 mph - N/A   Overcast
4:48 AM 37.9 °F - 36.0 °F 93% 30.11 in 0.8 mi Calm Calm - N/A   Mist
4:56 AM 37.9 °F - 36.0 °F 93% 30.13 in 1.0 mi Calm Calm - N/A   Mist
5:03 AM 39.0 °F - 37.0 °F 93% 30.11 in 0.8 mi Calm Calm - N/A   Mist
5:31 AM 39.0 °F - 36.0 °F 89% 30.11 in 0.8 mi Calm Calm - N/A   Overcast
5:49 AM 39.0 °F - 37.0 °F 93% 30.11 in 5.0 mi Calm Calm - N/A   Overcast
5:56 AM 39.0 °F - 37.0 °F 93% 30.13 in 4.0 mi Calm Calm - N/A   Overcast
6:56 AM 39.0 °F 36.8 °F 37.0 °F 93% 30.13 in 10.0 mi NNE 3.5 mph - N/A   Overcast
7:03 AM 39.0 °F 36.8 °F 37.0 °F 93% 30.11 in 10.0 mi NE 3.5 mph - N/A   Overcast
7:56 AM 39.9 °F - 37.0 °F 89% 30.14 in 10.0 mi Calm Calm - N/A   Overcast
8:56 AM 41.0 °F - 37.9 °F 89% 30.14 in 10.0 mi Calm Calm - N/A   Overcast
9:56 AM 42.1 °F - 37.9 °F 85% 30.14 in 10.0 mi Calm Calm - N/A   Overcast
10:56 AM 43.0 °F - 37.9 °F 82% 30.12 in 10.0 mi Calm Calm - N/A   Overcast
11:56 AM 43.0 °F 40.3 °F 37.9 °F 82% 30.11 in 10.0 mi NW 4.6 mph - N/A   Overcast
12:56 PM 44.1 °F 40.1 °F 37.0 °F 76% 30.09 in 10.0 mi NW 6.9 mph - N/A   Overcast
1:56 PM 43.0 °F 38.2 °F 37.0 °F 80% 30.08 in 10.0 mi NW 8.1 mph - N/A   Overcast
2:56 PM 42.1 °F 38.4 °F 37.0 °F 82% 30.08 in 10.0 mi NW 5.8 mph - N/A   Overcast
3:56 PM 41.0 °F 37.1 °F 37.0 °F 86% 30.09 in 9.0 mi WNW 5.8 mph - N/A   Overcast
4:56 PM 41.0 °F 36.4 °F 37.0 °F 86% 30.09 in 9.0 mi NNW 6.9 mph - N/A   Overcast
5:13 PM 39.9 °F 36.7 °F 36.0 °F 86% 30.07 in 8.0 mi NNW 4.6 mph - N/A   Overcast
5:56 PM 39.9 °F 35.8 °F 36.0 °F 86% 30.09 in 9.0 mi NW 5.8 mph - N/A   Overcast
6:56 PM 39.9 °F - 36.0 °F 86% 30.10 in 9.0 mi Calm Calm - N/A   Overcast
7:56 PM 39.9 °F 35.8 °F 36.0 °F 86% 30.10 in 8.0 mi West 5.8 mph - N/A   Overcast
8:56 PM 39.0 °F 36.8 °F 36.0 °F 89% 30.10 in 9.0 mi ENE 3.5 mph - N/A   Overcast
9:12 PM 39.0 °F - 36.0 °F 89% 30.07 in 9.0 mi Calm Calm - N/A   Overcast
9:56 PM 39.9 °F - 36.0 °F 86% 30.10 in 9.0 mi Calm Calm - N/A   Overcast
10:56 PM 39.0 °F - 36.0 °F 89% 30.09 in 7.0 mi Calm Calm - N/A   Overcast
11:56 PM 37.9 °F 34.4 °F 36.0 °F 93% 30.10 in 5.0 mi SSE 4.6 mph - N/A   Overcast